This is the latest recevied weather packets stored in our database for station/object S57D-6. If no packets are shown the sender has not sent any weather packets the latest 10 day(s).
| Time | Temp. | Humidity | Pressure | Rain* | Wind** | Luminosity | Snow |
|---|---|---|---|---|---|---|---|
| 1777710029 | 16.67° C | 60% | 1024 hPa | 0 mm | - | - | - |
| 1777709428 | 15.56° C | 62% | 1024.2 hPa | 0 mm | - | - | - |
| 1777709129 | 15.56° C | 63% | 1024.3 hPa | 0 mm | - | - | - |
| 1777708828 | 15.56° C | 65% | 1024.3 hPa | 0 mm | - | - | - |
| 1777708528 | 15° C | 65% | 1024.3 hPa | 0 mm | - | - | - |
| 1777708227 | 14.44° C | 65% | 1024.4 hPa | 0 mm | - | - | - |
| 1777707928 | 14.44° C | 67% | 1024.3 hPa | 0 mm | - | - | - |
| 1777707627 | 13.89° C | 68% | 1024.3 hPa | 0 mm | - | - | - |
| 1777707327 | 13.89° C | 68% | 1024.5 hPa | 0 mm | - | - | - |
| 1777707026 | 13.33° C | 69% | 1024.6 hPa | 0 mm | - | - | - |
| 1777706727 | 13.33° C | 70% | 1024.6 hPa | 0 mm | - | - | - |
| 1777706425 | 12.78° C | 71% | 1024.7 hPa | 0 mm | - | - | - |
| 1777706126 | 12.78° C | 71% | 1024.8 hPa | 0 mm | - | - | - |
| 1777705825 | 12.78° C | 72% | 1024.7 hPa | 0 mm | - | - | - |
| 1777705526 | 12.78° C | 73% | 1024.6 hPa | 0 mm | - | - | - |
| 1777705224 | 12.22° C | 74% | 1024.7 hPa | 0 mm | - | - | - |
| 1777704926 | 11.67° C | 75% | 1024.7 hPa | 0 mm | - | - | - |
| 1777704624 | 11.67° C | 75% | 1024.8 hPa | 0 mm | - | - | - |
| 1777704326 | 10.56° C | 76% | 1024.8 hPa | 0 mm | - | - | - |
| 1777704023 | 10.56° C | 77% | 1024.9 hPa | 0 mm | - | - | - |
| 1777703724 | 10.56° C | 77% | 1025 hPa | 0 mm | - | - | - |
| 1777703060 | 9.44° C | 80% | 1025.1 hPa | 0 mm | - | - | - |
| 1777702459 | 8.89° C | 81% | 1025.1 hPa | 0 mm | - | - | - |
| 1777702160 | 8.89° C | 81% | 1025.2 hPa | 0 mm | - | - | - |
| 1777701859 | 8.89° C | 82% | 1025.2 hPa | 0 mm | - | - | - |
* Rain latest hour (hover to see other rain measurements)
** Current wind speed in m/s (hover to see current wind gust speed)